Showing default

BRO-15, 60553

Orbit data source: Space-Track

BRO-15, 60553 is a payload satellite owned by Unseen Labs (FR) in SSO that was launched on Fri, 16 Aug 2024 UTC via an FALCON 9 launch vehicle from the Air Force Western Test Range (AFWTR). Payload-class satellites include a variety of spacecraft equipped with specific instruments for various scientific and technological missions. These include communications satellites like Starlink; space stations such as the ISS; scientific satellites like the Hubble; Earth observation satellites from companies like Planet Labs, Umbra, and HawkEye 360; GPS; miniature CubeSats for education and research; and military/defense satellites.

Loading next visibility...
Identifier
60553, 2024-149CP
Orbit
SSO
Country
Flag of FRFR
Related business
Manufacturer
GOMSpace
Mission
Operational Commercial Sigint
Bus & Motor
CUBESAT 8U, Unknown motor
Mass
15 kg wet, ~15 kg dry
Launch date (UTC)
2024-08-16 (2 years ago)
Launch vehicle
FALCON 9
Launch site
Air Force Western Test Range (AFWTR)
Object type
Payload
Rocket body
Debris
Shape & HBR
Box, 0.2 m
Radar Cross Section
0.100 m², Medium (>0.1 m² and < 1m²)

Expand to show TLE details & history
Last TLE update: 5 hours ago

TLE from 5 hours ago
0 BRO-15
1 60553U 24149CP  26132.19524712  .00000101  00000-0  14047-4 0  9996
2 60553  97.6805 208.2556 0007550 198.8312 161.2631 14.96064712 94624
Epoch: 2026-05-12T04:41Z
TLE epoch observation values (Epoch: 2026-05-12T04:41:09.351Z)
Latitude
-0.00002°
Longitude
-92.00647°
Altitude
587.096 km
Speed
7.564 km/s
True Right ascension
13h 53m 01s
True Declination
0° 00' 00"
Sunlit
Object was in full shadow at epoch
Visualization orbit readout
Latitude
Unknown
Longitude
Unknown
Altitude
Unknown
Speed
Unknown
Apparent Right ascension
Unknown
Apparent Declination
Unknown
Sunlit
N/A
Visualization observer readout
Local Sidereal Time
18:19:19
Azimuth
Unknown
Elevation
Unknown
Doppler factor
Unknown
Orbital elements
Apogee altitude
581.33 km
Perigee altitude
570.829 km
Semi-major axis
6,954.217 km
Eccentricity
0.00076
Inclination
97.6805°
RAAN
208.2556°
Arg. of periapsis
198.8312°
True anomaly
161.29087°
Mean anomaly
161.2631°
Eccentric anomaly
161.27699°
Mean motion
3.74258 °/min
Orbital period
96.19 mins
BSTAR
0.000014047
Loading maneuver chart data...
Computing Atmospheric mass density...
Loading historical data...
Loading historical data...
Loading historical data...
Loading historical data...
Loading historical data...
Loading historical data...
Loading historical data...

Documentation

Showing up to 5 results
|